Weather in Kumzero

Russia / Vologda Oblast     60°08′20″N   39°39′02″E
temp.,
°C
wind,
m/s
gust,
m/s
humid.,
%
clouds,
%
prec.,
mm/h
press.,
hPa
HPBL,
m
18 may, wed
wed1800:00+3nne2108710 0.0 1012232
03:00+1n269044 0.0 1012136
06:00+4n2473100 0.0 1012251
09:00+7nw3463100 0.0 10121119
12:00+4nw3795100 0.5 1012618
15:00+6nnw467460 1.1 10111264
18:00+6nw487766 0.6 10111102
21:00+1nw229016 0.7 101122
19 may, thu
thu1900:000nw229622 0.0 101144
03:000nw2498100 0.0 101099
06:00+2nnw378723 0.0 1011374
09:00+4nnw4666100 0.1 10121245
12:00+6nnw4750100 0.1 10131979
15:00+7nnw5753100 0.7 10131779
18:00+5nnw4975100 0.8 10141276
21:00+1nnw39855 0.9 1016372
20 may, fri
fri2000:00−1nw310965 0.0 1017260
03:00−2nnw28975 0.0 1019190
06:00+1nnw378049 0.0 1019281
09:00+6nnw344943 0.0 10191296
12:00+9nnw3440100 0.0 10182293
15:00+8nnw4542100 0.1 10181900
18:00+8n354469 0.0 10181887
21:00+2n266934 0.0 1018105
21 may, sat
sat2100:00−1n27765 0.0 1018113
03:00−3nne22915 0.0 101945
06:00+1nne26725 0.0 1018293
09:00+6n464860 0.0 10171569
12:00+8n57323 0.0 10161798
15:00+10n57325 0.0 10152090
18:00+9n46385 0.0 10142041
21:00+3n26645 0.0 101589
22 may, sun
sun2200:000n27760 0.0 1015132
03:00−2n26830 0.0 1015101
06:00+2n36610 0.0 1015258
09:00+7n46393 0.0 10141462
12:00+10n45290 0.0 10131829
15:00+11n45274 0.0 10132021
18:00+11nne3435100 0.0 10132021
21:00+4n226351 0.0 101418